This demonstration page uses our WeatherBlox Daily Observations layout. Learn more.

Left ArrowRight Arrow

39.08367, -84.50855

Hourly Observations for June 29, 2022

Temp ( °F °C ) Dew Point ( °F °C ) Humidity (%) Winds ( mph kmh ) Pressure ( in mb ) Visibility ( mi km ) Precip ( " mm )
12:53 am 00:53 Clear 55 12.8 53 11.7 93 93 Calm 30.21 1023 10 16 0.00 0.00
1:53 am 01:53 Clear 55 12.8 53 11.7 93 93 Calm 30.22 1023 10 16 0.00 0.00
2:53 am 02:53 Clear 52 11.1 52 11.1 100 100 NE 3 6 30.22 1023 10 16 0.00 0.00
3:53 am 03:53 Clear 53 11.7 52 11.1 96 96 Calm 30.21 1023 10 16 0.00 0.00
4:53 am 04:53 Clear with Mist and Fog 51 10.6 51 10.6 100 100 Calm 30.22 1023 4 6 0.00 0.00
5:53 am 05:53 Clear 51 10.6 50 10 96 96 Calm 30.23 1024 7 11 0.00 0.00
6:23 am 06:23 Partly Cloudy 51 10.6 51 10.6 100 100 NE 3 6 30.25 1024 10 16 0.00 0.00
6:32 am 06:32 Mostly Cloudy 51 10.6 50 10 96 96 Calm 30.25 1024 10 16 0.00 0.00
6:53 am 06:53 Cloudy with Mist and Fog 53 11.7 52 11.1 96 96 Calm 30.24 1024 2 3 0.00 0.00
7:31 am 07:31 Mostly Cloudy with Fog 54 12.2 54 12.2 100 100 Calm 30.26 1025 N/A 0.00 0.00
7:53 am 07:53 Mostly Cloudy with Fog 55 12.8 55 12.8 100 100 Calm 30.25 1024 N/A 0.00 0.00
8:42 am 08:42 Mostly Cloudy with Fog 60 15.6 58 14.4 93 93 Calm 30.27 1025 0 0 0.00 0.00
8:45 am 08:45 Sunny 60 15.6 59 15 96 96 Calm 30.27 1025 10 16 0.00 0.00
8:53 am 08:53 Sunny 61 16.1 59 15 93 93 Calm 30.26 1025 10 16 0.00 0.00
9:53 am 09:53 Sunny 69 20.6 59 15 70 70 Calm 30.26 1025 10 16 0.00 0.00
10:53 am 10:53 Sunny 76 24.4 54 12.2 47 47 VRB 5 7 30.27 1025 10 16 0.00 0.00
11:53 am 11:53 Sunny 78 25.6 53 11.7 42 42 Calm 30.26 1025 10 16 0.00 0.00
12:53 pm 12:53 Sunny 80 26.7 48 8.9 33 33 Calm 30.26 1025 10 16 0.00 0.00
1:53 pm 13:53 Sunny 81 27.2 51 10.6 35 35 SSW 5 7 30.24 1024 10 16 0.00 0.00
2:53 pm 14:53 Sunny 83 28.3 48 8.9 30 30 E 3 6 30.23 1024 10 16 0.00 0.00
3:53 pm 15:53 Sunny 84 28.9 50 10 31 31 VRB 3 6 30.22 1023 10 16 0.00 0.00
4:53 pm 16:53 Sunny 84 28.9 52 11.1 33 33 VRB 5 7 30.21 1023 10 16 0.00 0.00
5:53 pm 17:53 Sunny 84 28.9 52 11.1 33 33 S 5 7 30.19 1023 10 16 0.00 0.00
6:53 pm 18:53 Sunny 84 28.9 54 12.2 36 36 Calm 30.18 1022 10 16 0.00 0.00
7:53 pm 19:53 Sunny 80 26.7 61 16.1 52 52 S 5 7 30.18 1022 10 16 0.00 0.00
8:53 pm 20:53 Sunny 76 24.4 58 14.4 54 54 Calm 30.19 1022 10 16 0.00 0.00
9:53 pm 21:53 Clear 69 20.6 58 14.4 68 68 Calm 30.20 1023 10 16 0.00 0.00
10:53 pm 22:53 Clear 66 18.9 57 13.9 73 73 Calm 30.22 1023 10 16 0.00 0.00
11:53 pm 23:53 Clear 62 16.7 58 14.4 86 86 Calm 30.23 1024 10 16 0.00 0.00

Powered by AerisWeather